Back to catalog

STARLINK-32760

AliveCommunicationsVLEO
NORAD 62568·PAYLOAD·🇺🇸 United States

Launched Jan 10, 2025 from Cape Canaveral Space Force Station

Loading…

Next Passes (next 24 hours)

TLE

FreshSource: CelesTrak SupGP

Epoch: Sep 14, 2026, 20:51 UTC

1 62568C 25006Q   26257.86923611 -.00023577  00000+0 -85402-3 0  2572
2 62568  43.0016 304.3350 0001640 267.7304  83.9979 15.27587374    16

Track STARLINK-32760 in real time with AllMySat

Download on the App Store